THOR ABLESTAR DEB, 13364

Orbit data source: Space-Track

THOR ABLESTAR DEB, 13364 is space debris in LEO originally from a launch on Thu, 29 Jun 1961 UTC launched from the Air Force Eastern Test Range (AFETR). Debris objects in space refer to the collection of defunct objects orbiting the Earth. Examples of debris include non-operational satellites, rocket bodies, and fragments generated from explosions, collisions, or faulty payload assembly.

Loading next visibility...
Identifier
13364, 1961-015KS
Orbit
LEO
Country
Flag of USUS
Related business
Manufacturer
Unknown
Mission
Spacecraft
Bus & Motor
Unknown
Mass
Unknown
Launch date (UTC)
1961-06-29 (65 years ago)
Launch vehicle
Unknown
Launch site
Air Force Eastern Test Range (AFETR)
Object type
Payload
Rocket body
Debris
Shape & HBR
Unknown shape, 0.1 m
Radar Cross Section
Small (<0.1 m²)

Expand to show TLE details & history
Last TLE update: 21 hours ago

TLE from 21 hours ago
0 THOR ABLESTAR DEB
1 13364U 61015KS  26173.49144737  .00000394  00000-0  45829-3 0  9995
2 13364  66.2615 313.0834 0097342 175.7194 246.5621 13.77429335412913
Epoch: 2026-06-22T11:47Z
TLE epoch observation values (Epoch: 2026-06-22T11:47:41.052Z)
Latitude
53.50024°
Longitude
-98.26869°
Altitude
1,009.946 km
Speed
7.338 km/s
True Right ascension
23h 17m 18s
True Declination
53° 20' 29"
Sunlit
Object was in daylight at epoch
Visualization orbit readout
Latitude
Unknown
Longitude
Unknown
Altitude
Unknown
Speed
Unknown
Apparent Right ascension
Unknown
Apparent Declination
Unknown
Sunlit
N/A
Visualization observer readout
Local Sidereal Time
20:07:31
Azimuth
Unknown
Elevation
Unknown
Doppler factor
Unknown
Orbital elements
Apogee altitude
1,043.027 km
Perigee altitude
899.941 km
Semi-major axis
7,349.621 km
Eccentricity
0.00973
Inclination
66.2615°
RAAN
313.0834°
Arg. of periapsis
175.7194°
True anomaly
245.54366°
Mean anomaly
246.5621°
Eccentric anomaly
246.05238°
Mean motion
3.44466 °/min
Orbital period
104.51 mins
BSTAR
0.00045829
Loading maneuver chart data...
Computing Atmospheric mass density...

Documentation

Showing up to 5 results
|